Location: Highridge
(54.0333°N, 114.1333°W)
Time: 05:09:28
(UTC+00:00)

SO-50 - Pass Details

Date: 10 December 2023
Orbit: 608 x 660 km, 64.6° (Epoch: 02 March)

Event Time Altitude Azimuth Distance (km) Brightness Sun altitude
Exits shadow 13:16:07 23° 345° (NNW) 1,360 ? -20.2°
Maximum altitude 13:16:23 23° 350° (N) 1,355 ? -20.2°
Drops below altitude 10° 13:20:06 10° 44° (NE) 2,027 ? -19.7°
Sets 13:22:46 0° 59° (ENE) 2,925 ? -19.3°
